Tracking 19286 objects as of 18-Nov-2018
HD Live streaming from Space Station
objects crossing your sky now

SERT 2

Track SERT 2 now!
10-day predictions
SERT 2 is classified as:


NORAD ID: 4327
Int'l Code: 1970-009A
Perigee: 1,044.4 km
Apogee: 1,052.3 km
Inclination: 99.3 °
Period: 106.0 minutes
Semi major axis: 7419 km
RCS: 5.0507 m2 (large)
Launch date: February 4, 1970
Source: United States (US)
Launch site: AIR FORCE WESTERN TEST RANGE (AFWTR)
aabbcc
Your satellite tracking list
Your tracking list is empty




NASA's NSSDC Master Catalog

Two Line Element Set (TLE):
1  4327U 70009A   18321.85254931 -.00000053  00000-0 -16730-4 0  9995
2  4327  99.2760  33.0484 0005360 150.8443 316.6626 13.58483832417919
Source of the keplerian elements: AFSPC